Weather Roundup
Issued by NWS Springfield, MO

Home | Current Version | Previous Version | Text Only | Print | Product List | Glossary On
Versions: 1 2 3 4 5 6 7 8 9 10 11 12 13 14 15 16 17 18 19 20 21 22 23 24 25 26 27 28 29 30 31 32 33 34 35 36 37 38 39 40 41 42 43 44 45 46 47 48 49 50
000
NZUS99 KSGF 310159
HRRSGF

HOURLY WEATHER
NATIONAL WEATHER SERVICE SPRINGFIELD MO
900 PM CDT SAT AUG 30 2014

......SGF CWA......

CITY           SKY/WX    TMP DP  RH WIND       PRES   REMARKS
SPRINGFIELD    PTCLDY    71  66  84 SE9       29.94R
JOPLIN         CLEAR     80  67  64 S9        29.91R
WEST PLAINS    PTCLDY    76  69  79 S3        29.99R
ROLLA          CLOUDY    70  67  90 S7        29.93R
OSAGE BEACH    MOCLDY    75  66  73 S6        29.93R
BRANSON        MOCLDY    75  68  78 CALM      29.98R

......SURROUNDING SGF CWA......

CITY           SKY/WX    TMP DP  RH WIND       PRES   REMARKS
CHANUTE        PTCLDY    78  62  57 CALM      29.89R
PARSONS        CLEAR     75  67  76 CALM      29.90R
COFFEYVILLE    CLEAR     79  66  64 S5        29.88R
EMPORIA        CLEAR     78  61  55 SE6       29.89R
HARRISON AR    PTCLDY    74  70  87 SE5       29.98R
NEAR YELLVILLE PTCLDY    72  68  88 CALM      29.96S

......KANSAS AND MISSOURI......

CITY           SKY/WX    TMP DP  RH WIND       PRES   REMARKS
KANSAS CTY INT CLEAR     77  67  71 SE6       29.90S
DOWNTOWN KC    CLEAR     81  68  64 E5        29.89R
COLUMBIA       MOCLDY    74  70  87 S5        29.92R
SEDALIA        CLEAR     77  67  71 S6        29.92R
ST JOSEPH      CLEAR     72  68  87 CALM      29.89R
ST LOUIS       MOCLDY    79  71  76 S9        29.93R
SPIRIT OF STL  MOCLDY    77  71  82 S8        29.91R
KIRKSVILLE     CLEAR     71  69  93 CALM      29.92R
WICHITA        PTCLDY    77  60  55 S8        29.88R
TOPEKA         CLEAR     79  67  66 E5        29.88R
OLATHE         CLEAR     78  66  66 SE6       29.90S

......TENNESSEE......

CITY           SKY/WX    TMP DP  RH WIND       PRES   REMARKS
MEMPHIS        CLOUDY    74  71  91 SE9       30.00F
NASHVILLE      RAIN      73  71  93 S10       30.09S FOG

......ARKANSAS.......

CITY           SKY/WX    TMP DP  RH WIND       PRES   REMARKS
FAYETTEVILLE   CLEAR     71  70  96 CALM      29.96R
FT SMITH       PTCLDY    81  72  74 SE6       29.91R
LITTLE ROCK    MOCLDY    76  71  85 E8        29.96R

......OKLAHOMA.......

CITY           SKY/WX    TMP DP  RH WIND       PRES   REMARKS
TULSA          PTCLDY    82  67  60 SE7       29.88R
PONCA CITY     CLEAR     77  67  71 CALM      29.87S
MCALESTER      PTCLDY    74  70  87 SE5       29.92R
OKLAHOMA CITY  PTCLDY    82  60  47 SE8       29.89R

......IOWA............

CITY           SKY/WX    TMP DP  RH WIND       PRES   REMARKS
DES MOINES     CLEAR     74  64  71 CALM      29.88R
QUAD CITIES    CLEAR     69  67  93 S3        29.89R

......ILLINOIS........

CITY           SKY/WX    TMP DP  RH WIND       PRES   REMARKS
QUINCY         PTCLDY    76  70  82 SE3       29.90R
CHICAGO        PTCLDY    76  63  64 SW5       29.89R




USA.gov is the U.S. government's official web portal to all federal, state and local government web resources and services.